Regional Weather Roundup
Issued by NWS

Home | Current Version | Previous Version | Graphics & Text | Print | Product List | Glossary On
Versions: 1 2 3 4 5 6 7 8 9 10 11 12 13 14 15 16 17 18 19 20 21 22 23 24 25 26 27 28 29 30 31 32 33 34 35 36 37 38 39 40 41 42 43 44 45 46 47 48 49 50
623
ASUS44 KLIX 240610
RWRLA
LOUISIANA WEATHER ROUNDUP
NATIONAL WEATHER SERVICE NEW ORLEANS LA
100 AM CDT FRI OCT 24 2014

NOTE: "FAIR" INDICATES FEW OR NO CLOUDS BELOW 12,000 FEET WITH NO
      SIGNIFICANT WEATHER AND/OR OBSTRUCTIONS TO VISIBILITY.
      SKY/WX - SKY CONDITION AND SIGNIFICANT WEATHER.
      TMP - AIR TEMPERATURE.    DP   - DEWPOINT TEMPERATURE.
      RH  - RELATIVE HUMIDITY.  PRES - PRESSURE.
      HX  - HEAT INDEX.         WCI  - WIND CHILL INDEX.

*  THESE STATIONS ARE NOT NWS OR FAA STATIONS AND ARE NOT UNDER
   NWS QUALITY CONTROL.

LAZ040-048-061>063-065-066-069-240700-
SOUTHEAST LOUISIANA

CITY           SKY/WX    TMP DP  RH WIND       PRES   REMARKS
N.O. AUDUBON   NOT AVBL
N.O. INTL ARPT PTCLDY    64  50  60 NE9       30.07S
6HR MIN TEMP:  61; 6HR MAX TEMP:  69;

N.O. LAKEFRONT CLEAR     67  50  54 NE15      30.08S
6HR MIN TEMP:  67; 6HR MAX TEMP:  70;

N.O. DOWNTOWN* FAIR      64  46  52 N5        30.08S
6HR MIN TEMP:  64; 6HR MAX TEMP:  72;

SLIDELL        CLEAR     53  50  89 CALM      30.07F
6HR MIN TEMP:  53; 6HR MAX TEMP:  63;

BATON ROUGE    CLEAR     52  50  93 CALM      30.10R
6HR MIN TEMP:  52; 6HR MAX TEMP:  63;

BOOTHVILLE     PTCLDY    69  52  54 NE5       30.05F
6HR MIN TEMP:  68; 6HR MAX TEMP:  70;

BELLE CHASSE   CLEAR     53  50  89 CALM      30.07S
6HR MIN TEMP:  53; 6HR MAX TEMP:  62;

BOGALUSA*        N/A     52  48  87 CALM      30.10S
6HR MIN TEMP:  51; 6HR MAX TEMP:  67;

NEW ROADS*     FAIR      52  49  91 CALM      30.10S
6HR MIN TEMP:  51; 6HR MAX TEMP:  61;

GONZALES*      FAIR      54  54  99 CALM      30.08S
6HR MIN TEMP:  54; 6HR MAX TEMP:  63;

HAMMOND*       CLEAR     52  48  87 CALM      30.10S
HOUMA*         CLEAR     56  53  90 NW5       30.07S
6HR MIN TEMP:  53; 6HR MAX TEMP:  65;

PORT FOURCHON* CLEAR     66  59  77 N5        30.09S

$$

LAZ041-044-053-054-240700-
SOUTHWEST LOUISIANA

CITY           SKY/WX    TMP DP  RH WIND       PRES   REMARKS
LAKE CHARLES   CLEAR     54  50  86 NE5       30.10S
6HR MIN TEMP:  54; 6HR MAX TEMP:  65;

LAFAYETTE      CLEAR     54  51  90 N5        30.10R
6HR MIN TEMP:  54; 6HR MAX TEMP:  65;

PATTERSON      CLEAR     55  54  94 N5        30.10F
6HR MIN TEMP:  55; 6HR MAX TEMP:  66;

SALT POINT       N/A     60  55  83 VRB3      30.07F
6HR MIN TEMP:  60; 6HR MAX TEMP:  69;

NEW IBERIA     CLEAR     56  51  84 N6        30.10S
6HR MIN TEMP:  56; 6HR MAX TEMP:  63;

CHENAULT AIRPK CLEAR     53  50  89 CALM      30.11S
6HR MIN TEMP:  53; 6HR MAX TEMP:  65;


$$

LAZ027-028-240700-
CENTRAL LOUISIANA

CITY           SKY/WX    TMP DP  RH WIND       PRES   REMARKS
FORT POLK      CLEAR     52  51  95 N5        30.12R
6HR MIN TEMP:  51; 6HR MAX TEMP:  61;

ALEXANDRIA INT CLEAR     48  47  96 NW5       30.11R FOG
6HR MIN TEMP:  46; 6HR MAX TEMP:  60;

ALEXANDRIA     PTCLDY    45  44  97 CALM      30.12R FOG
6HR MIN TEMP:  44; 6HR MAX TEMP:  56;


$$

LAZ001-002-240700-
NORTHWEST LOUISIANA

CITY           SKY/WX    TMP DP  RH WIND       PRES   REMARKS
SHREVEPORT     CLEAR     52  50  93 CALM      30.13S
6HR MIN TEMP:  51; 6HR MAX TEMP:  63;

BARKSDALE AFB  CLEAR     51  49  93 CALM      30.14S
6HR MIN TEMP:  51; 6HR MAX TEMP:  60;

DTN SHREVEPORT CLEAR     52  49  89 CALM      30.14S
6HR MIN TEMP:  51; 6HR MAX TEMP:  61;


$$

LAZ014-016-240700-
NORTHEAST LOUISIANA

CITY           SKY/WX    TMP DP  RH WIND       PRES   REMARKS
MONROE         CLEAR     49  47  93 CALM      30.15R
6HR MIN TEMP:  47; 6HR MAX TEMP:  55;

TALLULAH       CLEAR     46  44  93 N3        30.12S
6HR MIN TEMP:  44; 6HR MAX TEMP:  58;


$$




USA.gov is the U.S. government's official web portal to all federal, state and local government web resources and services.